When you browse on this site, cookies collect data to enhance your experience and personalize the content and advertising you see.
Visit our Privacy Policy to learn more. By continuing to use the site, you agree to this use of cookies and data.
  • In Romania
  • List of Countries
  • For 7 days
  • Water Temperature
  • Satellite Maps
  • Weather Map
  • Weather Widgets
  • user-avatar
    Login

    Hourly Weather Bucharest

    Today, 22 July, Monday

    Time Temperature Precipitation Wind Pressure Humidity
    00:00 +26°C° 0 mm 1 mps 757 mmHg 45%
    01:00 +25°C° 0 mm 1 mps 757 mmHg 47%
    02:00 +25°C° 0 mm 1 mps 757 mmHg 48%
    03:00 +24°C° 0 mm 1 mps 757 mmHg 49%
    04:00 +24°C° 0 mm 1 mps 757 mmHg 51%
    05:00 +24°C° 0 mm 1 mps 757 mmHg 52%
    06:00 +25°C° 0 mm 1 mps 757 mmHg 50%
    07:00 +27°C° 0 mm 1 mps 757 mmHg 48%
    08:00 +28°C° 0 mm 1 mps 757 mmHg 45%
    09:00 +30°C° 0 mm 2 mps 757 mmHg 42%
    10:00 +32°C° 0 mm 2 mps 757 mmHg 39%
    11:00 +35°C° 0 mm 2 mps 756 mmHg 35%
    12:00 +35°C° 0 mm 2 mps 756 mmHg 33%
    13:00 +36°C° 0 mm 2 mps 756 mmHg 31%
    14:00 +37°C° 0 mm 2 mps 755 mmHg 29%
    15:00 +37°C° 0 mm 2 mps 755 mmHg 30%
    16:00 +36°C° 0 mm 2 mps 755 mmHg 30%
    17:00 +36°C° 0 mm 2 mps 755 mmHg 31%
    18:00 +32°C° 0.2 mm 2 mps 755 mmHg 39%
    19:00 +30°C° 0.2 mm 3 mps 755 mmHg 47%
    20:00 +27°C° 0.2 mm 3 mps 755 mmHg 55%
    21:00 +26°C° 0.8 mm 3 mps 755 mmHg 64%
    22:00 +24°C° 0.8 mm 3 mps 755 mmHg 72%
    23:00 +22°C° 0.8 mm 4 mps 755 mmHg 80%

    Tomorrow, 23 July, Tuesday

    Time Temperature Precipitation Wind Pressure Humidity
    00:00 +21°C° 1 mm 3 mps 755 mmHg 82%
    01:00 +21°C° 1 mm 2 mps 755 mmHg 85%
    02:00 +22°C° 1 mm 1 mps 755 mmHg 87%
    03:00 +22°C° 0.9 mm 1 mps 755 mmHg 87%
    04:00 +22°C° 0.9 mm 1 mps 755 mmHg 86%
    05:00 +22°C° 0.9 mm 1 mps 755 mmHg 86%
    06:00 +21°C° 0.3 mm 2 mps 755 mmHg 82%
    07:00 +23°C° 0.3 mm 2 mps 755 mmHg 77%
    08:00 +24°C° 0.3 mm 3 mps 755 mmHg 73%
    09:00 +25°C° 0.3 mm 3 mps 755 mmHg 67%
    10:00 +27°C° 0.3 mm 3 mps 755 mmHg 61%
    11:00 +28°C° 0.3 mm 4 mps 755 mmHg 56%
    12:00 +28°C° 0.3 mm 4 mps 754 mmHg 54%
    13:00 +28°C° 0.3 mm 4 mps 754 mmHg 53%
    14:00 +28°C° 0.3 mm 4 mps 753 mmHg 52%
    15:00 +28°C° 0.1 mm 5 mps 754 mmHg 52%
    16:00 +27°C° 0.1 mm 5 mps 754 mmHg 51%
    17:00 +27°C° 0.1 mm 6 mps 754 mmHg 51%
    18:00 +25°C° 0.5 mm 4 mps 754 mmHg 58%
    19:00 +22°C° 0.5 mm 3 mps 754 mmHg 65%
    20:00 +22°C° 0.5 mm 1 mps 754 mmHg 72%
    21:00 +22°C° 0 mm 1 mps 754 mmHg 71%
    22:00 +21°C° 0 mm 1 mps 755 mmHg 71%
    23:00 +21°C° 0 mm 1 mps 755 mmHg 70%

    Day after tomorrow, 24 July, Wednesday

    Time Temperature Precipitation Wind Pressure Humidity
    00:00 +21°C° 0 mm 1 mps 755 mmHg 75%
    01:00 +19°C° 0 mm 2 mps 755 mmHg 79%
    02:00 +19°C° 0 mm 2 mps 755 mmHg 83%
    03:00 +19°C° 0 mm 2 mps 755 mmHg 83%
    04:00 +19°C° 0 mm 1 mps 755 mmHg 82%
    05:00 +19°C° 0 mm 1 mps 755 mmHg 82%
    06:00 +21°C° 0 mm 1 mps 755 mmHg 74%
    07:00 +21°C° 0 mm 2 mps 755 mmHg 66%
    08:00 +24°C° 0 mm 2 mps 756 mmHg 58%
    09:00 +25°C° 0 mm 2 mps 755 mmHg 55%
    10:00 +26°C° 0 mm 2 mps 755 mmHg 51%
    11:00 +27°C° 0 mm 1 mps 755 mmHg 47%
    12:00 +28°C° 0 mm 2 mps 755 mmHg 47%
    13:00 +28°C° 0 mm 3 mps 755 mmHg 47%
    14:00 +29°C° 0 mm 3 mps 754 mmHg 47%
    15:00 +29°C° 0.1 mm 3 mps 754 mmHg 48%
    16:00 +28°C° 0.1 mm 3 mps 754 mmHg 49%
    17:00 +28°C° 0.1 mm 3 mps 753 mmHg 51%
    18:00 +27°C° 0 mm 2 mps 754 mmHg 54%
    19:00 +26°C° 0 mm 2 mps 754 mmHg 58%
    20:00 +25°C° 0 mm 2 mps 754 mmHg 61%
    21:00 +24°C° 0.1 mm 2 mps 754 mmHg 63%
    22:00 +24°C° 0.1 mm 1 mps 755 mmHg 65%
    23:00 +23°C° 0.1 mm 1 mps 755 mmHg 67%

    25 July, Thursday

    Time Temperature Precipitation Wind Pressure Humidity
    00:00 +23°C° 0.3 mm 1 mps 755 mmHg 70%
    01:00 +22°C° 0.3 mm 1 mps 755 mmHg 73%
    02:00 +22°C° 0.3 mm 1 mps 755 mmHg 75%
    03:00 +21°C° 0 mm 2 mps 755 mmHg 75%
    04:00 +20°C° 0 mm 2 mps 755 mmHg 75%
    05:00 +20°C° 0 mm 2 mps 755 mmHg 75%
    06:00 +21°C° 0 mm 2 mps 755 mmHg 73%
    07:00 +21°C° 0 mm 2 mps 755 mmHg 70%
    08:00 +23°C° 0 mm 2 mps 755 mmHg 68%
    09:00 +25°C° 0 mm 2 mps 755 mmHg 62%
    10:00 +26°C° 0 mm 2 mps 755 mmHg 57%
    11:00 +27°C° 0 mm 2 mps 755 mmHg 52%
    12:00 +28°C° 0 mm 2 mps 755 mmHg 49%
    13:00 +29°C° 0 mm 2 mps 754 mmHg 46%
    14:00 +30°C° 0 mm 1 mps 754 mmHg 43%
    15:00 +31°C° 0 mm 1 mps 754 mmHg 42%
    16:00 +31°C° 0 mm 1 mps 754 mmHg 42%
    17:00 +31°C° 0 mm 1 mps 753 mmHg 41%
    18:00 +28°C° 0.2 mm 2 mps 753 mmHg 50%
    19:00 +26°C° 0.2 mm 3 mps 754 mmHg 60%
    20:00 +24°C° 0.2 mm 3 mps 754 mmHg 70%
    21:00 +22°C° 0.4 mm 3 mps 754 mmHg 72%
    22:00 +23°C° 0.4 mm 2 mps 754 mmHg 73%
    23:00 +21°C° 0.4 mm 2 mps 754 mmHg 75%

    26 July, Friday

    Time Temperature Precipitation Wind Pressure Humidity
    00:00 +21°C° 0 mm 2 mps 754 mmHg 74%
    01:00 +22°C° 0 mm 1 mps 754 mmHg 72%
    02:00 +22°C° 0 mm 1 mps 754 mmHg 71%
    03:00 +21°C° 0 mm 1 mps 754 mmHg 72%
    04:00 +21°C° 0 mm 1 mps 754 mmHg 73%
    05:00 +20°C° 0 mm 1 mps 754 mmHg 73%
    06:00 +22°C° 0 mm 1 mps 754 mmHg 69%
    07:00 +23°C° 0 mm 1 mps 754 mmHg 65%
    08:00 +24°C° 0 mm 1 mps 754 mmHg 60%
    09:00 +26°C° 0 mm 1 mps 754 mmHg 56%
    10:00 +27°C° 0 mm 1 mps 754 mmHg 52%
    11:00 +29°C° 0 mm 1 mps 754 mmHg 48%
    12:00 +29°C° 0 mm 2 mps 753 mmHg 46%
    13:00 +30°C° 0 mm 2 mps 753 mmHg 44%
    14:00 +31°C° 0 mm 2 mps 753 mmHg 42%
    15:00 +31°C° 0 mm 2 mps 753 mmHg 42%
    16:00 +31°C° 0 mm 2 mps 753 mmHg 42%
    17:00 +31°C° 0 mm 2 mps 752 mmHg 42%
    18:00 +29°C° 0 mm 2 mps 753 mmHg 46%
    19:00 +28°C° 0 mm 2 mps 753 mmHg 50%
    20:00 +26°C° 0 mm 3 mps 753 mmHg 54%
    21:00 +25°C° 0 mm 3 mps 753 mmHg 59%
    22:00 +24°C° 0 mm 3 mps 753 mmHg 63%
    23:00 +24°C° 0 mm 3 mps 754 mmHg 67%

    27 July, Saturday

    Time Temperature Precipitation Wind Pressure Humidity
    00:00 +22°C° 0 mm 3 mps 754 mmHg 69%
    01:00 +22°C° 0 mm 3 mps 753 mmHg 70%
    02:00 +22°C° 0 mm 3 mps 753 mmHg 71%
    03:00 +21°C° 0 mm 2 mps 753 mmHg 72%
    04:00 +21°C° 0 mm 2 mps 753 mmHg 72%
    05:00 +22°C° 0 mm 1 mps 753 mmHg 73%
    06:00 +23°C° 0 mm 2 mps 753 mmHg 69%
    07:00 +25°C° 0 mm 2 mps 753 mmHg 65%
    08:00 +26°C° 0 mm 3 mps 753 mmHg 61%
    09:00 +28°C° 0 mm 3 mps 753 mmHg 56%
    10:00 +29°C° 0 mm 3 mps 753 mmHg 51%
    11:00 +30°C° 0 mm 3 mps 753 mmHg 46%
    12:00 +31°C° 0 mm 3 mps 752 mmHg 45%
    13:00 +31°C° 0 mm 3 mps 752 mmHg 43%
    14:00 +31°C° 0 mm 3 mps 752 mmHg 42%
    15:00 +32°C° 0 mm 2 mps 751 mmHg 41%
    16:00 +32°C° 0 mm 2 mps 751 mmHg 40%
    17:00 +32°C° 0 mm 2 mps 751 mmHg 39%
    18:00 +30°C° 0 mm 2 mps 751 mmHg 44%
    19:00 +29°C° 0 mm 2 mps 751 mmHg 48%
    20:00 +27°C° 0 mm 2 mps 751 mmHg 52%
    21:00 +27°C° 0 mm 2 mps 751 mmHg 52%
    22:00 +27°C° 0 mm 2 mps 751 mmHg 51%
    23:00 +27°C° 0 mm 3 mps 751 mmHg 51%
    Show more